Date String (YYYY-MM-DD hh:mm:ss) UTC,Instrument flags,absolute air pressure of the measurement (hPa),sample flow rate (lpm),inlet stack bypass flow (lpm),air temperature of the measurement (°C),ambient temperature measured by the external sensor (°C),aerosol sample conditioner tube jacket temperature (°C),OPC LED temperature (°C),internal box temperature (°C),relative humidity of the measurement (%),span deviation,mass concentration of particles derived from Lorenz-Mie calculation of OPC scattering (μg/m³),mass concentration of particles derived from Lorenz-Mie calculation of OPC scattering (μg/m³),mass concentration of particles derived from Lorenz-Mie calculation of OPC scattering (μg/m³)
DateTimeUTC,F1_M11,P_M11,Q1_M11,Q2_M11,T1_M11,T2_M11,T3_M11,T4_M11,T5_M11,U1_M11,ZSPAN_M11,X0_M11,X2_M11,X1_M11
2023-06-02 14:00:00,SystemResetWarning,0827.7,5.00,000.00,029.3,027.8,000.0,037.7,031.0,27.6,0000.0,0003.72,0001.64,0001.09
2023-06-02 14:01:00,SystemResetWarning,0827.7,5.00,000.00,029.3,027.8,000.0,037.7,031.0,28.0,0000.0,0003.76,0001.66,0001.09
2023-06-02 14:02:00,SystemResetWarning,0827.7,5.00,000.00,029.3,027.8,000.0,037.7,031.0,27.1,0000.0,0002.96,0001.66,0001.09
2023-06-02 14:03:00,SystemResetWarning,0827.7,5.01,000.00,029.3,027.8,000.0,037.7,031.0,27.1,0000.0,0002.81,0001.65,0001.09
2023-06-02 14:04:00,SystemResetWarning,0827.7,4.99,000.00,029.4,027.8,000.0,037.7,031.0,27.1,0000.0,0003.35,0001.66,0001.09
2023-06-02 14:05:00,SystemResetWarning,0827.7,4.99,000.00,029.4,027.8,000.0,037.7,031.0,26.1,0000.0,0003.42,0001.63,0001.10
2023-06-02 14:06:00,SystemResetWarning,0827.7,5.01,000.00,029.4,027.8,000.0,037.7,031.0,25.5,0000.0,0003.32,0001.59,0001.11
2023-06-02 14:07:00,SystemResetWarning,0827.7,5.00,000.00,029.4,027.8,000.0,037.7,031.0,25.6,0000.0,0003.40,0001.59,0001.11
2023-06-02 14:08:00,SystemResetWarning,0827.7,4.99,000.00,029.4,027.8,000.0,037.7,031.0,25.7,0000.0,0003.29,0001.55,0001.09
2023-06-02 14:09:00,SystemResetWarning,0827.8,4.99,000.00,029.4,027.8,000.0,037.7,031.0,25.9,0000.0,0003.23,0001.52,0001.09
2023-06-02 14:10:00,SystemResetWarning,0827.8,5.00,000.00,029.4,027.8,000.0,037.7,031.0,25.9,0000.0,0003.39,0001.55,0001.09
2023-06-02 14:11:00,SystemResetWarning,0827.7,5.01,000.00,029.4,027.8,000.0,037.7,031.0,25.9,0000.0,0003.47,0001.57,0001.10
2023-06-02 14:12:00,SystemResetWarning,0827.8,5.01,000.00,029.4,027.8,000.0,037.7,031.0,25.8,0000.0,0003.53,0001.57,0001.11
2023-06-02 14:13:00,SystemResetWarning,0827.8,4.99,000.00,029.4,027.8,000.0,037.7,031.0,26.1,0000.0,0003.60,0001.55,0001.10
2023-06-02 14:14:00,SystemResetWarning,0827.8,4.99,000.00,029.4,027.9,000.0,037.7,031.0,26.0,0000.0,0003.57,0001.54,0001.10
2023-06-02 14:15:00,SystemResetWarning,0827.8,5.00,000.00,029.4,027.9,000.0,037.7,031.1,25.1,0000.0,0003.08,0001.57,0001.10
2023-06-02 14:16:00,SystemResetWarning,0827.7,5.01,000.00,029.4,027.9,000.0,037.7,031.1,25.0,0000.0,0002.89,0001.55,0001.08
2023-06-02 14:17:00,SystemResetWarning,0827.9,5.01,000.00,029.4,027.9,000.0,037.8,031.1,25.6,0000.0,0002.88,0001.55,0001.07
2023-06-02 14:18:00,SystemResetWarning,0827.8,5.01,000.00,029.4,027.9,000.0,037.8,031.1,25.2,0000.0,0002.86,0001.53,0001.06
2023-06-02 14:19:00,SystemResetWarning,0827.8,5.00,000.00,029.4,027.9,000.0,037.8,031.1,25.3,0000.0,0003.08,0001.56,0001.06
2023-06-02 14:20:00,SystemResetWarning,0827.8,5.00,000.00,029.5,027.9,000.0,037.8,031.1,25.4,0000.0,0003.14,0001.57,0001.05
2023-06-02 14:21:00,SystemResetWarning,0827.9,4.99,000.00,029.5,027.9,000.0,037.8,031.1,25.8,0000.0,0003.07,0001.58,0001.05
2023-06-02 14:22:00,SystemResetWarning,0827.8,4.99,000.00,029.5,027.9,000.0,037.8,031.1,25.7,0000.0,0003.03,0001.58,0001.04
2023-06-02 14:23:00,SystemResetWarning,0827.9,5.00,000.00,029.5,027.9,000.0,037.8,031.1,26.8,0000.0,0003.00,0001.57,0001.03
2023-06-02 14:24:00,SystemResetWarning,0828.0,5.01,000.00,029.5,027.9,000.0,037.8,031.1,26.9,0000.0,0002.93,0001.59,0001.05
2023-06-02 14:25:00,SystemResetWarning,0828.0,5.00,000.00,029.5,027.9,000.0,037.8,031.1,26.7,0000.0,0002.93,0001.60,0001.04
2023-06-02 14:26:00,SystemResetWarning,0828.0,5.00,000.00,029.5,027.9,000.0,037.8,031.1,26.7,0000.0,0002.79,0001.55,0001.04
2023-06-02 14:27:00,SystemResetWarning,0828.1,4.99,000.00,029.5,027.9,000.0,037.8,031.1,25.7,0000.0,0002.79,0001.56,0001.05
2023-06-02 14:28:00,SystemResetWarning,0828.0,5.00,000.00,029.5,027.9,000.0,037.8,031.1,25.3,0000.0,0002.77,0001.55,0001.06
2023-06-02 14:29:00,SystemResetWarning,0828.0,5.00,000.00,029.5,027.9,000.0,037.8,031.1,25.3,0000.0,0002.70,0001.56,0001.07
2023-06-02 14:30:00,SystemResetWarning,0828.0,5.00,000.00,029.5,027.9,000.0,037.8,031.1,25.6,0000.0,0002.61,0001.58,0001.08
2023-06-02 14:31:00,SystemResetWarning,0828.1,5.00,000.00,029.5,027.9,000.0,037.8,031.1,25.6,0000.0,0002.77,0001.62,0001.09
2023-06-02 14:32:00,SystemResetWarning,0828.0,4.99,000.00,029.5,028.0,000.0,037.8,031.1,25.2,0000.0,0002.76,0001.62,0001.10
2023-06-02 14:33:00,SystemResetWarning,0828.0,4.99,000.00,029.5,028.0,000.0,037.9,031.1,24.9,0000.0,0002.86,0001.65,0001.11
2023-06-02 14:34:00,SystemResetWarning,0828.0,5.01,000.00,029.5,028.0,000.0,037.9,031.2,24.1,0000.0,0002.87,0001.66,0001.11
2023-06-02 14:35:00,SystemResetWarning,0828.0,5.01,000.00,029.5,028.0,000.0,037.9,031.2,24.1,0000.0,0003.30,0001.63,0001.09
2023-06-02 14:36:00,SystemResetWarning,0828.0,4.99,000.00,029.5,028.0,000.0,037.9,031.2,24.0,0000.0,0003.45,0001.64,0001.08
2023-06-02 14:37:00,SystemResetWarning,0828.0,4.99,000.00,029.5,028.0,000.0,037.9,031.2,24.6,0000.0,0003.50,0001.66,0001.08
2023-06-02 14:38:00,SystemResetWarning,0828.1,4.99,000.00,029.6,028.0,000.0,037.9,031.2,23.7,0000.0,0003.62,0001.68,0001.07
2023-06-02 14:39:00,SystemResetWarning,0828.1,5.00,000.00,029.6,028.0,000.0,037.9,031.2,23.9,0000.0,0003.71,0001.69,0001.07
2023-06-02 14:40:00,SystemResetWarning,0828.1,5.01,000.00,029.6,028.0,000.0,037.9,031.2,23.6,0000.0,0003.78,0001.71,0001.07
2023-06-02 14:41:00,SystemResetWarning,0828.0,5.00,000.00,029.6,028.0,000.0,037.9,031.2,23.2,0000.0,0003.74,0001.71,0001.06
2023-06-02 14:42:00,SystemResetWarning,0828.0,5.01,000.00,029.6,028.0,000.0,037.9,031.2,23.6,0000.0,0003.56,0001.63,0001.04
2023-06-02 14:43:00,SystemResetWarning,0828.0,5.00,000.00,029.6,028.0,000.0,037.9,031.2,23.8,0000.0,0003.53,0001.58,0001.03
2023-06-02 14:44:00,SystemResetWarning,0828.0,4.99,000.00,029.6,028.0,000.0,037.9,031.2,23.0,0000.0,0003.36,0001.51,0001.02
2023-06-02 14:45:00,SystemResetWarning,0828.0,4.99,000.00,029.6,028.0,000.0,037.9,031.2,23.5,0000.0,0003.24,0001.46,0001.01
2023-06-02 14:46:00,SystemResetWarning,0828.0,5.00,000.00,029.6,028.0,000.0,037.9,031.2,24.2,0000.0,0002.85,0001.47,0001.01
2023-06-02 14:47:00,SystemResetWarning,0828.0,5.01,000.00,029.6,028.1,000.0,037.9,031.2,24.6,0000.0,0002.75,0001.47,0001.02
2023-06-02 14:48:00,SystemResetWarning,0828.0,5.01,000.00,029.6,028.1,000.0,037.9,031.2,24.2,0000.0,0002.87,0001.49,0001.03
2023-06-02 14:49:00,SystemResetWarning,0828.0,5.00,000.00,029.6,028.1,000.0,037.9,031.2,24.0,0000.0,0002.81,0001.47,0001.04
2023-06-02 14:50:00,SystemResetWarning,0828.0,4.99,000.00,029.6,028.1,000.0,038.0,031.3,24.4,0000.0,0002.96,0001.50,0001.04
2023-06-02 14:51:00,SystemResetWarning,0828.0,4.99,000.00,029.6,028.1,000.0,038.0,031.2,25.1,0000.0,0003.00,0001.53,0001.05
2023-06-02 14:52:00,SystemResetWarning,0828.0,5.00,000.00,029.6,028.1,000.0,038.0,031.3,26.0,0000.0,0003.07,0001.56,0001.05
2023-06-02 14:53:00,SystemResetWarning,0828.0,5.00,000.00,029.7,028.1,000.0,038.0,031.3,25.6,0000.0,0003.07,0001.58,0001.07
2023-06-02 14:54:00,SystemResetWarning,0828.0,5.01,000.00,029.7,028.1,000.0,038.0,031.3,26.5,0000.0,0003.47,0001.59,0001.08
2023-06-02 14:55:00,SystemResetWarning,0827.9,5.00,000.00,029.7,028.1,000.0,038.0,031.3,25.9,0000.0,0003.62,0001.64,0001.09
2023-06-02 14:56:00,SystemResetWarning,0827.9,5.00,000.00,029.7,028.1,000.0,038.0,031.3,26.5,0000.0,0003.70,0001.70,0001.12
2023-06-02 14:57:00,SystemResetWarning,0827.9,4.99,000.00,029.7,028.1,000.0,038.0,031.3,26.5,0000.0,0003.80,0001.70,0001.14
2023-06-02 14:58:00,SystemResetWarning,0827.8,5.00,000.00,029.7,028.1,000.0,038.0,031.3,26.2,0000.0,0004.02,0001.71,0001.14
2023-06-02 14:59:00,SystemResetWarning,0827.8,5.01,000.00,029.7,028.2,000.0,038.0,031.3,26.5,0000.0,0004.02,0001.74,0001.15
